FW0403 Weather Reports


Display with metric or nautical units.
time (UTC)temp
F
wind
direction
speed
MPH
gust
MPH
rain 1hr
in
rain 24hr
in
rain mn
in
humidity
%
barometer
mb
20260903014750 88 188 10.0 15.0 0.00 0.07 0.07 75 1012.5
20260903014241 88 200 10.0 15.0 0.00 0.07 0.07 75 1012.4
20260903013736 88 180 10.0 15.0 0.00 0.07 0.07 75 1012.4
20260903013218 88 177 11.0 15.0 0.00 0.07 0.07 75 1012.3
20260903012708 88 191 12.0 15.0 0.00 0.07 0.07 74 1012.3
20260903012214 88 200 12.0 15.0 0.00 0.07 0.07 75 1012.0
20260903011711 88 198 11.0 15.0 0.00 0.07 0.07 75 1012.0
20260903011208 88 180 11.0 14.0 0.00 0.07 0.07 75 1012.2
20260903010712 88 209 11.0 14.0 0.00 0.07 0.07 76 1012.2
20260903010211 88 186 10.0 14.0 0.00 0.07 0.07 76 1012.3
20260903005702 88 175 10.0 13.0 0.00 0.07 0.07 76 1012.4
20260903005209 88 187 10.0 15.0 0.00 0.07 0.07 76 1012.5
20260903004656 88 157 10.0 15.0 0.00 0.07 0.07 76 1012.3
20260903004150 88 192 10.0 15.0 0.00 0.07 0.07 75 1012.0
20260903003657 88 177 11.0 15.0 0.00 0.07 0.07 76 1011.9
20260903002529 88 174 11.0 16.0 0.00 0.07 0.07 76 1011.4
20260903001411 88 169 10.0 16.0 0.00 0.07 0.07 76 1011.3
20260903000849 88 190 10.0 14.0 0.00 0.07 0.07 76 1011.5
20260902235717 89 196 9.0 12.0 0.00 0.07 0.07 76 1011.7
20260902235213 89 191 9.0 14.0 0.00 0.07 0.07 76 1011.8
20260902234720 89 188 9.0 14.0 0.00 0.07 0.07 75 1011.9
20260902234200 89 181 9.0 14.0 0.00 0.07 0.07 76 1011.9
20260902233700 89 194 9.0 14.0 0.00 0.07 0.07 76 1011.8
20260902233140 89 177 9.0 13.0 0.00 0.07 0.07 76 1011.9
20260902232645 89 188 9.0 13.0 0.00 0.07 0.07 76 1011.8
20260902231510 89 181 9.0 13.0 0.00 0.07 0.07 75 1011.7
20260902230954 89 196 9.0 13.0 0.00 0.07 0.07 75 1011.9
20260902230449 89 193 9.0 13.0 0.00 0.07 0.07 76 1011.9
20260902225939 89 192 9.0 13.0 0.00 0.07 0.07 75 1011.9
20260902225426 89 192 9.0 13.0 0.00 0.07 0.07 75 1011.9
20260902224928 89 198 9.0 13.0 0.00 0.07 0.07 76 1012.0
20260902224432 89 183 9.0 13.0 0.00 0.07 0.07 76 1012.0
20260902223910 89 195 9.0 12.0 0.00 0.07 0.07 75 1011.9
20260902222743 89 193 9.0 12.0 0.00 0.07 0.07 75 1011.8
20260902222247 89 181 8.0 13.0 0.00 0.07 0.07 74 1011.8
20260902221731 89 197 8.0 13.0 0.00 0.07 0.07 76 1011.8
20260902221230 89 197 9.0 13.0 0.00 0.07 0.07 76 1011.9
20260902220726 89 193 10.0 13.0 0.00 0.07 0.07 75 1012.1
20260902220221 90 166 9.0 13.0 0.00 0.07 0.07 74 1012.1
20260902215043 90 202 8.0 12.0 0.00 0.07 0.07 73 1012.3
20260902213858 91 185 8.0 17.0 0.00 0.07 0.07 73 1012.1
20260902213335 91 212 9.0 17.0 0.00 0.07 0.07 72 1012.1
20260902212840 91 197 9.0 17.0 0.00 0.07 0.07 72 1012.2
20260902211037 91 219 8.0 15.0 0.00 0.07 0.07 73 1012.2
20260902205927 91 204 9.0 18.0 0.00 0.07 0.07 73 1012.4
20260902204807 91 218 10.0 18.0 0.00 0.07 0.07 73 1012.4
20260902204249 90 200 10.0 18.0 0.00 0.07 0.07 73 1012.3
20260902203728 90 213 10.0 19.0 0.00 0.07 0.07 73 1012.3
20260902203226 90 221 10.0 19.0 0.00 0.07 0.07 73 1012.3
20260902202729 90 171 11.0 19.0 0.00 0.07 0.07 74 1012.5
20260902202225 90 218 12.0 19.0 0.00 0.07 0.07 72 1012.7
20260902201717 91 222 11.0 18.0 0.00 0.07 0.07 73 1012.7
20260902201223 91 219 10.0 17.0 0.00 0.07 0.07 72 1012.7
20260902200731 91 240 10.0 17.0 0.00 0.07 0.07 72 1012.8
20260902200238 91 219 10.0 19.0 0.00 0.07 0.07 72 1012.8
20260902195738 91 221 11.0 19.0 0.00 0.07 0.07 72 1012.9
20260902194601 91 221 11.0 19.0 0.00 0.07 0.07 71 1013.1
20260902193445 91 202 11.0 19.0 0.00 0.07 0.07 71 1013.1
20260902192931 91 200 11.0 19.0 0.00 0.07 0.07 71 1013.1
20260902191144 90 188 10.0 18.0 0.00 0.07 0.07 71 1013.2
20260902190650 90 211 10.0 18.0 0.00 0.07 0.07 71 1013.3
20260902190134 91 200 10.0 18.0 0.00 0.07 0.07 71 1013.3
20260902185618 91 217 10.0 18.0 0.00 0.07 0.07 71 1013.4
20260902184427 91 202 9.0 18.0 0.00 0.07 0.07 70 1013.4
20260902183917 91 214 8.0 16.0 0.00 0.07 0.07 70 1013.4
20260902183412 91 219 8.0 16.0 0.00 0.07 0.07 70 1013.5
20260902182901 91 224 9.0 17.0 0.00 0.07 0.07 71 1013.7
20260902182341 92 223 9.0 17.0 0.00 0.07 0.07 71 1013.6
20260902181822 92 216 8.0 17.0 0.00 0.07 0.07 70 1013.5
20260902181326 92 256 7.0 17.0 0.00 0.07 0.07 70 1013.8
20260902180811 92 223 8.0 15.0 0.00 0.07 0.07 71 1013.8
20260902180257 92 225 8.0 15.0 0.00 0.07 0.07 70 1014.0
20260902175119 92 202 7.0 17.0 0.00 0.07 0.07 70 1014.2
20260902174618 92 207 7.0 17.0 0.00 0.07 0.07 69 1014.2
20260902174059 91 199 7.0 17.0 0.00 0.07 0.07 69 1014.2
20260902173557 91 220 7.0 17.0 0.00 0.07 0.07 70 1014.3
20260902173057 92 225 7.0 14.0 0.00 0.07 0.07 70 1014.4
20260902172556 91 204 7.0 14.0 0.00 0.07 0.07 70 1014.5
20260902172034 91 223 7.0 14.0 0.00 0.07 0.07 71 1014.5
20260902171516 91 215 6.0 13.0 0.00 0.07 0.07 71 1014.5
20260902171016 91 211 5.0 13.0 0.00 0.07 0.07 70 1014.4
20260902170454 91 263 4.0 13.0 0.00 0.07 0.07 70 1014.6
20260902165958 90 244 5.0 12.0 0.00 0.07 0.07 70 1014.7
20260902165441 90 274 6.0 11.0 0.00 0.07 0.07 70 1014.7
20260902164316 90 279 4.0 10.0 0.00 0.07 0.07 71 1014.8
20260902163819 90 238 5.0 10.0 0.00 0.07 0.07 71 1014.9
20260902163304 90 267 5.0 17.0 0.00 0.07 0.07 70 1014.8
20260902162137 90 229 5.0 17.0 0.00 0.07 0.07 72 1014.7
20260902161614 90 223 6.0 17.0 0.00 0.07 0.07 72 1014.8
20260902161059 90 209 6.0 12.0 0.00 0.07 0.07 72 1014.9
20260902160545 90 228 6.0 12.0 0.00 0.07 0.07 72 1014.9
20260902160043 90 235 7.0 19.0 0.00 0.07 0.07 73 1014.9
20260902155542 89 223 7.0 19.0 0.00 0.07 0.07 73 1014.8
20260902155028 90 227 8.0 19.0 0.00 0.07 0.07 74 1014.8
20260902153855 89 224 8.0 16.0 0.00 0.07 0.07 73 1014.7
20260902153353 89 248 8.0 15.0 0.00 0.07 0.07 73 1014.7
20260902152844 89 232 8.0 17.0 0.00 0.07 0.07 73 1014.6
20260902152334 89 211 7.0 17.0 0.00 0.07 0.07 73 1014.6
20260902151823 89 277 7.0 17.0 0.00 0.07 0.07 72 1014.5
20260902151318 89 234 6.0 17.0 0.00 0.07 0.07 72 1014.4
20260902150156 89 277 7.0 13.0 0.00 0.07 0.07 73 1014.4
20260902145027 89 233 7.0 14.0 0.00 0.07 0.07 73 1014.3
20260902143844 88 227 7.0 15.0 0.00 0.07 0.07 73 1014.2
20260902143343 88 259 6.0 15.0 0.00 0.07 0.07 73 1014.2
20260902142830 88 240 6.0 16.0 0.00 0.07 0.07 74 1014.2
20260902142324 88 232 6.0 16.0 0.00 0.07 0.07 74 1014.2
20260902141811 88 234 6.0 16.0 0.00 0.07 0.07 74 1014.1
20260902140645 87 233 7.0 15.0 0.00 0.07 0.07 72 1014.2
20260902140152 88 247 7.0 13.0 0.00 0.07 0.07 76 1014.1
20260902135633 88 223 7.0 16.0 0.00 0.07 0.07 76 1014.1
20260902134519 88 237 9.0 16.0 0.00 0.07 0.07 75 1014.1
20260902134014 88 235 10.0 16.0 0.00 0.07 0.07 76 1014.1
20260902133453 87 219 9.0 15.0 0.00 0.07 0.07 76 1014.0
20260902132942 87 208 9.0 14.0 0.00 0.07 0.07 76 1014.1
20260902131820 87 203 9.0 18.0 0.00 0.07 0.07 75 1014.1
20260902131320 86 194 10.0 18.0 0.00 0.07 0.07 75 1014.0
20260902130807 86 200 10.0 18.0 0.00 0.07 0.07 75 1013.9
20260902130308 86 234 10.0 17.0 0.00 0.07 0.07 76 1013.9
20260902125147 86 223 11.0 11.0 0.00 0.07 0.07 75 1013.9
20260902124933 86 202 11.0 17.0 0.00 0.07 0.07 75 1013.9
20260902124427 86 208 11.0 17.0 0.00 0.07 0.07 75 1013.8
20260902123910 86 223 9.0 17.0 0.00 0.07 0.07 76 1013.7
20260902122741 85 204 7.0 15.0 0.00 0.07 0.07 76 1013.5
20260902120952 83 217 8.0 13.0 0.00 0.07 0.07 78 1013.4
20260902120444 83 205 7.0 13.0 0.00 0.07 0.07 79 1013.3
20260902115309 82 209 11.0 20.0 0.04 0.07 0.07 79 1013.3
20260902114747 82 196 14.0 41.0 0.07 0.07 0.07 79 1013.4
20260902114226 82 161 17.0 41.0 0.22 0.07 0.07 78 1013.3
20260902113721 84 186 21.0 41.0 0.51 0.04 0.05 76 1013.2
20260902113205 85 194 20.0 41.0 0.00 0.01 0.01 75 1013.0
20260902112644 87 226 14.0 29.0 0.00 0.00 0.00 74 1013.1
20260902112150 88 206 11.0 26.0 0.00 0.00 0.00 76 1013.1
20260902111036 88 212 10.0 24.0 0.00 0.00 0.00 76 1013.0
20260902110543 88 205 11.0 24.0 0.00 0.00 0.00 76 1013.1
20260902110023 88 219 12.0 23.0 0.00 0.00 0.00 75 1013.1
20260902105521 88 244 12.0 24.0 0.00 0.00 0.00 76 1013.1
20260902105018 88 224 11.0 24.0 0.00 0.00 0.00 76 1013.1
20260902104520 88 252 12.0 24.0 0.00 0.00 0.00 76 1013.0
20260902104014 88 207 13.0 24.0 0.00 0.00 0.00 76 1013.0
20260902102842 88 237 14.0 23.0 0.00 0.00 0.00 76 1012.7
20260902102333 88 192 14.0 24.0 0.00 0.00 0.00 77 1012.8
20260902101813 88 190 14.0 24.0 0.00 0.00 0.00 76 1012.8
20260902100643 88 223 13.0 23.0 0.00 0.00 0.00 76 1012.7
20260902100140 88 244 14.0 23.0 0.00 0.00 0.00 76 1012.6
20260902095620 88 217 15.0 25.0 0.00 0.00 0.00 76 1012.5
20260902095101 88 223 15.0 25.0 0.00 0.00 0.00 76 1012.5
20260902094605 88 219 14.0 25.0 0.00 0.00 0.00 76 1012.5
20260902094056 88 218 12.0 25.0 0.00 0.00 0.00 76 1012.5
20260902093535 88 214 12.0 30.0 0.00 0.00 0.00 76 1012.7
20260902092413 88 218 15.0 30.0 0.00 0.00 0.00 75 1012.6
20260902091914 88 220 15.0 30.0 0.00 0.00 0.00 75 1012.6
20260902091410 88 214 14.0 25.0 0.00 0.00 0.00 76 1012.5
20260902090852 88 185 16.0 25.0 0.00 0.00 0.00 76 1012.6
20260902090338 88 231 15.0 24.0 0.00 0.00 0.00 76 1012.6
20260902085840 88 199 14.0 27.0 0.00 0.00 0.00 77 1012.6
20260902085332 88 184 15.0 27.0 0.00 0.00 0.00 77 1012.6
20260902084823 88 199 15.0 27.0 0.00 0.00 0.00 76 1012.6
20260902084318 88 235 15.0 27.0 0.00 0.00 0.00 76 1012.6
20260902083822 88 207 15.0 25.0 0.00 0.00 0.00 76 1012.6
20260902083318 88 194 15.0 25.0 0.00 0.00 0.00 76 1012.6
20260902082808 88 207 16.0 24.0 0.00 0.00 0.00 76 1012.5
20260902082313 88 213 15.0 24.0 0.00 0.00 0.00 76 1012.5
20260902081751 88 190 15.0 23.0 0.00 0.00 0.00 75 1012.7
20260902080617 88 214 14.0 27.0 0.00 0.00 0.00 76 1012.8
20260902080107 88 204 14.0 27.0 0.00 0.00 0.00 75 1012.8
20260902075610 88 169 15.0 27.0 0.00 0.00 0.00 75 1012.8
20260902075114 88 212 15.0 27.0 0.00 0.00 0.00 75 1012.9
20260902074608 88 199 14.0 21.0 0.00 0.00 0.00 76 1012.8
20260902074105 88 224 14.0 25.0 0.00 0.00 0.00 75 1012.9
20260902073600 88 214 14.0 25.0 0.00 0.00 0.00 75 1012.9
20260902073100 88 196 15.0 25.0 0.00 0.00 0.00 75 1012.8
20260902072540 88 225 15.0 25.0 0.00 0.00 0.00 75 1012.9
20260902071411 88 192 13.0 23.0 0.00 0.00 0.00 75 1013.0
20260902070244 87 209 14.0 23.0 0.00 0.00 0.00 75 1013.0
20260902064438 88 213 12.0 21.0 0.00 0.00 0.00 75 1013.0
20260902063926 88 198 12.0 21.0 0.00 0.00 0.00 75 1012.9
20260902062803 87 196 13.0 20.0 0.00 0.00 0.00 75 1012.8
20260902062252 87 194 12.0 20.0 0.00 0.00 0.00 75 1012.7
20260902061734 87 204 12.0 20.0 0.00 0.00 0.00 76 1012.7
20260902061232 87 194 13.0 20.0 0.00 0.00 0.00 76 1012.7
20260902060723 87 200 13.0 20.0 0.00 0.00 0.00 75 1012.9
20260902060200 87 164 12.0 18.0 0.00 0.00 0.00 76 1012.8
20260902055649 87 188 12.0 18.0 0.00 0.00 0.00 76 1012.9
20260902053851 87 179 12.0 17.0 0.00 0.00 0.00 76 1012.8
20260902053349 87 187 12.0 19.0 0.00 0.00 0.00 77 1012.8
20260902052836 87 193 12.0 19.0 0.00 0.00 0.00 76 1012.7
20260902051049 87 190 10.0 18.0 0.00 0.00 0.00 76 1013.0
20260902050550 87 178 10.0 18.0 0.00 0.00 0.00 76 1013.1
20260902050043 87 204 11.0 15.0 0.00 0.00 0.00 76 1013.1
20260902045527 87 192 10.0 17.0 0.00 0.00 0.00 76 1013.0
20260902043122 87 178 10.0 15.0 0.00 0.00 0.00 75 1013.0
20260902042613 87 230 9.0 15.0 0.00 0.00 0.00 75 1013.0
20260902042115 87 193 9.0 15.0 0.00 0.00 0.00 74 1013.0
20260902041610 87 193 9.0 16.0 0.00 0.00 0.00 74 1013.2
20260902041114 88 186 10.0 16.0 0.00 0.00 0.00 75 1013.1
20260902040556 87 211 10.0 17.0 0.00 0.00 0.00 74 1013.2
20260902040048 87 215 9.0 17.0 0.00 0.00 0.00 74 1013.1
20260902035533 87 214 10.0 17.0 0.00 0.00 0.00 74 1013.1
20260902035034 87 229 9.0 17.0 0.00 0.00 0.00 74 1013.1
20260902034521 88 197 9.0 15.0 0.00 0.00 0.00 75 1013.1
20260902033358 88 198 8.0 17.0 0.00 0.00 0.00 74 1012.8
20260902032903 88 188 9.0 17.0 0.00 0.00 0.00 73 1012.8
20260902032344 88 184 10.0 18.0 0.00 0.00 0.00 72 1012.8
20260902031841 88 190 9.0 18.0 0.00 0.00 0.00 72 1012.7
20260902031328 88 207 8.0 18.0 0.00 0.00 0.00 72 1012.5
20260902030812 88 213 8.0 18.0 0.00 0.00 0.00 72 1012.4
20260902030305 88 177 8.0 14.0 0.00 0.00 0.00 72 1012.3
20260902025754 88 229 8.0 13.0 0.00 0.00 0.00 72 1012.3
20260902024630 87 218 8.0 14.0 0.00 0.00 0.00 71 1012.1
20260902024133 87 204 7.0 14.0 0.00 0.00 0.00 71 1012.1
20260902023622 88 211 6.0 13.0 0.00 0.00 0.00 71 1012.0
20260902023103 87 210 6.0 13.0 0.00 0.00 0.00 71 1012.1
20260902022604 87 187 6.0 12.0 0.00 0.00 0.00 70 1012.1
20260902021441 87 235 6.0 11.0 0.00 0.00 0.00 70 1012.0
20260902020301 87 204 6.0 10.0 0.00 0.00 0.00 71 1011.8